GFSNIL_prec_precacc12_303.txt.gz
Total_Precipitation_Accumulation
0.47 0.44 0.32 0.28 0.30 0.25 0.14 0.09 0.04 0.01 0.00 0.00 0.00 0.00 0.00 0.00 0.00 0.00 0.00 0.00 0.00 0.00
0.42 0.44 0.44 0.40 0.31 0.19 0.10 0.04 0.01 0.01 0.00 0.00 0.00 0.00 0.00 0.00 0.00 0.00 0.00 0.00 0.00 0.00
0.38 0.32 0.26 0.25 0.21 0.12 0.06 0.03 0.01 0.01 0.00 0.00 0.00 0.00 0.00 0.00 0.00 0.00 0.00 0.00 0.00 0.00
0.33 0.29 0.25 0.22 0.22 0.13 0.06 0.05 0.06 0.04 0.01 0.00 0.00 0.00 0.00 0.00 0.00 0.00 0.00 0.00 0.00 0.00
0.20 0.17 0.15 0.16 0.14 0.07 0.05 0.03 0.03 0.03 0.02 0.01 0.00 0.00 0.00 0.00 0.00 0.00 0.00 0.00 0.00 0.00
0.20 0.18 0.14 0.12 0.09 0.07 0.05 0.02 0.01 0.01 0.00 0.00 0.00 0.00 0.00 0.00 0.00 0.00 0.00 0.00 0.00 0.00
0.16 0.19 0.24 0.19 0.14 0.08 0.04 0.05 0.08 0.08 0.06 0.02 0.00 0.00 0.00 0.00 0.00 0.00 0.00 0.00 0.00 0.00
0.12 0.20 0.18 0.16 0.16 0.22 0.23 0.19 0.17 0.15 0.10 0.07 0.05 0.00 0.00 0.00 0.00 0.00 0.00 0.00 0.00 0.00
0.02 0.06 0.14 0.11 0.05 0.04 0.06 0.07 0.06 0.04 0.03 0.01 0.00 0.00 0.00 0.00 0.00 0.00 0.00 0.00 0.00 0.00
0.02 0.04 0.06 0.09 0.06 0.02 0.00 0.00 0.00 0.00 0.00 0.00 0.00 0.00 0.00 0.00 0.00 0.00 0.00 0.00 0.00 0.00
0.02 0.03 0.05 0.08 0.08 0.07 0.05 0.01 0.00 0.00 0.00 0.00 0.00 0.00 0.00 0.00 0.00 0.00 0.00 0.00 0.00 0.00
0.01 0.02 0.04 0.04 0.07 0.05 0.03 0.02 0.01 0.00 0.00 0.00 0.00 0.00 0.00 0.00 0.00 0.00 0.00 0.00 0.00 0.00
0.02 0.02 0.04 0.05 0.04 0.05 0.05 0.03 0.01 0.01 0.00 0.00 0.00 0.00 0.00 0.00 0.00 0.00 0.00 0.00 0.00 0.00
0.01 0.01 0.03 0.05 0.06 0.05 0.04 0.02 0.01 0.00 0.00 0.00 0.00 0.00 0.00 0.00 0.00 0.00 0.00 0.00 0.00 0.00

GFSNIL_prec_precacc12_309.txt.gz
Total_Precipitation_Accumulation
0.17 0.26 0.31 0.17 0.19 0.23 0.14 0.09 0.04 0.01 0.00 0.00 0.00 0.00 0.00 0.00 0.00 0.00 0.00 0.00 0.00 0.00
0.17 0.27 0.37 0.32 0.25 0.20 0.11 0.05 0.03 0.03 0.02 0.01 0.01 0.01 0.00 0.00 0.00 0.00 0.00 0.00 0.00 0.00
0.19 0.21 0.29 0.28 0.21 0.20 0.13 0.09 0.09 0.07 0.04 0.02 0.01 0.00 0.00 0.00 0.00 0.00 0.00 0.00 0.00 0.00
0.26 0.35 0.44 0.37 0.30 0.24 0.18 0.11 0.08 0.06 0.03 0.02 0.02 0.01 0.00 0.00 0.00 0.00 0.00 0.00 0.00 0.00
0.30 0.27 0.43 0.43 0.29 0.22 0.19 0.15 0.13 0.08 0.07 0.05 0.03 0.01 0.00 0.00 0.00 0.00 0.00 0.00 0.00 0.00
0.94 0.64 0.47 0.39 0.30 0.24 0.17 0.15 0.16 0.12 0.11 0.10 0.03 0.01 0.00 0.00 0.00 0.00 0.00 0.00 0.00 0.00
0.72 0.71 0.99 1.13 0.80 0.42 0.26 0.22 0.22 0.19 0.11 0.09 0.05 0.02 0.00 0.00 0.00 0.00 0.00 0.00 0.00 0.00
0.26 0.31 0.34 0.51 0.64 0.62 0.50 0.37 0.26 0.20 0.15 0.11 0.09 0.04 0.01 0.00 0.00 0.00 0.00 0.00 0.00 0.00
0.07 0.11 0.22 0.23 0.22 0.17 0.16 0.15 0.10 0.07 0.06 0.02 0.01 0.00 0.00 0.00 0.00 0.00 0.00 0.00 0.00 0.00
0.04 0.06 0.10 0.16 0.15 0.10 0.08 0.04 0.04 0.02 0.01 0.01 0.00 0.00 0.00 0.00 0.00 0.00 0.00 0.00 0.00 0.00
0.01 0.04 0.07 0.12 0.15 0.17 0.13 0.07 0.06 0.04 0.01 0.00 0.00 0.00 0.00 0.00 0.00 0.00 0.00 0.00 0.00 0.00
0.00 0.01 0.04 0.06 0.10 0.11 0.09 0.10 0.07 0.05 0.01 0.00 0.00 0.00 0.00 0.00 0.00 0.00 0.00 0.00 0.00 0.00
0.00 0.00 0.02 0.04 0.05 0.06 0.10 0.09 0.07 0.07 0.04 0.04 0.01 0.00 0.00 0.00 0.00 0.00 0.00 0.00 0.00 0.00
0.00 0.00 0.00 0.00 0.01 0.03 0.05 0.06 0.05 0.04 0.02 0.02 0.02 0.02 0.01 0.00 0.00 0.00 0.00 0.00 0.00 0.00

GFSNIL_prec_precacc12_312.txt.gz
Total_Precipitation_Accumulation
0.00 0.03 0.12 0.03 0.02 0.03 0.06 0.08 0.04 0.01 0.00 0.00 0.00 0.00 0.00 0.00 0.00 0.00 0.00 0.00 0.00 0.00
0.04 0.11 0.21 0.16 0.13 0.12 0.08 0.04 0.03 0.03 0.02 0.01 0.01 0.01 0.00 0.00 0.00 0.00 0.00 0.00 0.00 0.00
0.11 0.10 0.18 0.18 0.13 0.15 0.11 0.07 0.09 0.07 0.04 0.02 0.02 0.02 0.01 0.01 0.00 0.00 0.00 0.00 0.00 0.00
0.19 0.25 0.35 0.31 0.24 0.23 0.21 0.14 0.09 0.06 0.03 0.03 0.04 0.04 0.02 0.01 0.00 0.00 0.00 0.00 0.00 0.00
0.33 0.30 0.45 0.45 0.28 0.24 0.25 0.23 0.17 0.10 0.07 0.07 0.05 0.04 0.02 0.01 0.00 0.00 0.00 0.00 0.00 0.00
1.14 0.80 0.64 0.51 0.34 0.26 0.23 0.23 0.23 0.16 0.14 0.14 0.09 0.04 0.03 0.01 0.00 0.00 0.00 0.00 0.00 0.00
2.12 1.87 1.74 1.90 1.19 0.67 0.47 0.33 0.32 0.32 0.21 0.20 0.15 0.10 0.05 0.03 0.00 0.00 0.00 0.00 0.00 0.00
1.19 1.53 1.48 1.20 1.44 1.55 1.24 1.04 0.74 0.51 0.39 0.31 0.18 0.09 0.03 0.01 0.00 0.00 0.00 0.00 0.00 0.00
0.23 0.32 0.46 0.53 0.44 0.47 0.74 0.76 0.58 0.36 0.29 0.16 0.06 0.03 0.01 0.00 0.00 0.00 0.00 0.00 0.00 0.00
0.08 0.12 0.18 0.24 0.25 0.23 0.21 0.13 0.14 0.09 0.06 0.07 0.04 0.02 0.00 0.00 0.00 0.00 0.00 0.00 0.00 0.00
0.03 0.06 0.11 0.15 0.20 0.24 0.18 0.16 0.15 0.12 0.10 0.08 0.04 0.01 0.00 0.00 0.00 0.00 0.00 0.00 0.00 0.00
0.00 0.01 0.02 0.05 0.10 0.12 0.12 0.15 0.14 0.13 0.09 0.06 0.03 0.01 0.00 0.00 0.00 0.00 0.00 0.00 0.00 0.00
0.00 0.00 0.00 0.01 0.03 0.06 0.11 0.11 0.10 0.13 0.11 0.10 0.02 0.01 0.00 0.00 0.00 0.00 0.00 0.00 0.00 0.00
0.00 0.00 0.00 0.00 0.01 0.03 0.05 0.07 0.07 0.06 0.05 0.04 0.04 0.03 0.02 0.00 0.00 0.00 0.00 0.00 0.00 0.00

GFSNIL_prec_precacc12_315.txt.gz
Total_Precipitation_Accumulation
0.00 0.01 0.09 0.01 0.00 0.00 0.00 0.00 0.00 0.00 0.00 0.00 0.00 0.00 0.00 0.00 0.00 0.00 0.00 0.00 0.00 0.00
0.01 0.04 0.08 0.03 0.02 0.02 0.01 0.00 0.01 0.02 0.02 0.01 0.01 0.01 0.00 0.00 0.00 0.00 0.00 0.00 0.00 0.00
0.06 0.05 0.13 0.12 0.06 0.10 0.07 0.05 0.08 0.06 0.04 0.02 0.02 0.02 0.01 0.01 0.01 0.00 0.00 0.00 0.00 0.00
0.16 0.20 0.28 0.20 0.12 0.16 0.19 0.10 0.04 0.02 0.02 0.02 0.04 0.04 0.02 0.02 0.02 0.02 0.02 0.01 0.01 0.00
0.35 0.30 0.41 0.37 0.19 0.21 0.23 0.24 0.20 0.12 0.07 0.06 0.05 0.05 0.04 0.03 0.03 0.03 0.03 0.02 0.01 0.00
1.25 0.89 0.70 0.55 0.39 0.31 0.28 0.32 0.33 0.26 0.23 0.20 0.11 0.05 0.05 0.03 0.04 0.06 0.06 0.02 0.00 0.00
2.39 2.35 2.09 2.24 1.47 0.82 0.59 0.46 0.40 0.39 0.27 0.26 0.22 0.16 0.13 0.12 0.10 0.08 0.03 0.00 0.00 0.00
1.21 1.66 2.01 1.88 2.24 2.15 1.51 1.18 0.86 0.69 0.72 0.65 0.59 0.49 0.37 0.32 0.20 0.09 0.01 0.00 0.00 0.00
0.27 0.34 0.43 0.62 0.73 0.94 1.24 1.31 1.39 1.31 1.11 1.08 1.04 0.82 0.50 0.19 0.05 0.02 0.00 0.00 0.00 0.00
0.09 0.16 0.19 0.20 0.24 0.34 0.40 0.35 0.43 0.50 0.53 0.48 0.38 0.29 0.27 0.18 0.07 0.02 0.00 0.00 0.00 0.00
0.05 0.09 0.13 0.15 0.21 0.23 0.20 0.25 0.24 0.19 0.21 0.17 0.15 0.16 0.14 0.11 0.05 0.01 0.00 0.00 0.00 0.00
0.02 0.04 0.09 0.10 0.13 0.16 0.20 0.23 0.23 0.23 0.19 0.16 0.17 0.18 0.16 0.08 0.02 0.00 0.00 0.00 0.00 0.00
0.01 0.03 0.06 0.07 0.07 0.09 0.11 0.14 0.17 0.19 0.19 0.21 0.12 0.10 0.08 0.04 0.01 0.01 0.00 0.00 0.00 0.00
0.00 0.02 0.03 0.04 0.04 0.06 0.07 0.09 0.10 0.11 0.12 0.10 0.09 0.09 0.07 0.02 0.01 0.01 0.00 0.00 0.00 0.00

GFSNIL_prec_precacc12_318.txt.gz
Total_Precipitation_Accumulation
0.00 0.00 0.01 0.01 0.00 0.00 0.00 0.00 0.00 0.00 0.00 0.00 0.00 0.00 0.00 0.00 0.00 0.00 0.00 0.00 0.00 0.00
0.00 0.00 0.00 0.00 0.00 0.00 0.00 0.00 0.00 0.00 0.00 0.00 0.00 0.01 0.00 0.00 0.00 0.00 0.00 0.00 0.00 0.00
0.06 0.03 0.04 0.05 0.02 0.05 0.03 0.02 0.01 0.01 0.02 0.02 0.02 0.02 0.01 0.01 0.01 0.00 0.00 0.00 0.00 0.00
0.12 0.15 0.13 0.11 0.06 0.10 0.14 0.08 0.04 0.02 0.03 0.07 0.07 0.07 0.06 0.04 0.04 0.02 0.02 0.02 0.01 0.01
0.34 0.31 0.32 0.31 0.15 0.14 0.17 0.18 0.14 0.13 0.11 0.10 0.11 0.10 0.08 0.06 0.05 0.05 0.07 0.07 0.09 0.12
1.22 0.90 0.68 0.49 0.32 0.24 0.21 0.26 0.29 0.25 0.27 0.29 0.19 0.11 0.08 0.06 0.07 0.09 0.11 0.12 0.15 0.16
2.39 2.29 2.01 2.10 1.36 0.73 0.54 0.47 0.45 0.47 0.39 0.38 0.33 0.25 0.19 0.17 0.16 0.15 0.13 0.15 0.18 0.12
1.27 1.70 2.04 1.91 2.27 2.24 1.68 1.35 1.02 0.82 0.82 0.75 0.68 0.59 0.54 0.52 0.53 0.53 0.45 0.39 0.28 0.11
0.40 0.42 0.43 0.58 0.71 0.96 1.34 1.42 1.49 1.42 1.25 1.20 1.20 1.26 1.17 1.07 0.90 0.72 0.53 0.34 0.14 0.04
0.16 0.18 0.21 0.18 0.20 0.32 0.38 0.37 0.47 0.58 0.69 0.74 0.66 0.64 0.66 0.69 0.53 0.33 0.18 0.10 0.03 0.00
0.20 0.15 0.13 0.14 0.17 0.17 0.16 0.23 0.24 0.24 0.32 0.32 0.35 0.44 0.39 0.35 0.38 0.31 0.23 0.15 0.04 0.00
0.35 0.17 0.17 0.12 0.12 0.14 0.17 0.20 0.20 0.24 0.28 0.26 0.25 0.28 0.32 0.35 0.29 0.33 0.19 0.10 0.03 0.00
0.19 0.09 0.11 0.11 0.10 0.09 0.08 0.11 0.18 0.23 0.23 0.34 0.23 0.21 0.14 0.23 0.27 0.18 0.12 0.03 0.00 0.00
0.11 0.04 0.05 0.07 0.08 0.11 0.10 0.10 0.09 0.13 0.17 0.15 0.19 0.22 0.19 0.12 0.16 0.12 0.03 0.02 0.00 0.00

GFSNIL_prec_precacc12_321.txt.gz
Total_Precipitation_Accumulation
0.00 0.00 0.00 0.00 0.00 0.00 0.00 0.00 0.00 0.00 0.00 0.00 0.00 0.00 0.00 0.00 0.00 0.00 0.00 0.00 0.00 0.00
0.00 0.00 0.00 0.00 0.00 0.00 0.00 0.00 0.00 0.00 0.00 0.00 0.00 0.00 0.00 0.00 0.00 0.01 0.00 0.00 0.00 0.00
0.06 0.03 0.01 0.00 0.00 0.00 0.00 0.00 0.00 0.00 0.00 0.01 0.02 0.02 0.03 0.01 0.02 0.03 0.02 0.02 0.01 0.00
0.11 0.12 0.07 0.02 0.00 0.03 0.07 0.04 0.02 0.00 0.02 0.06 0.08 0.08 0.07 0.06 0.06 0.05 0.04 0.03 0.02 0.01
0.27 0.22 0.18 0.11 0.04 0.05 0.09 0.12 0.11 0.10 0.08 0.07 0.10 0.13 0.12 0.11 0.11 0.10 0.11 0.11 0.11 0.13
0.62 0.51 0.40 0.31 0.19 0.15 0.17 0.21 0.20 0.18 0.19 0.23 0.22 0.18 0.16 0.13 0.14 0.16 0.16 0.16 0.18 0.20
2.00 1.98 1.46 1.40 0.89 0.54 0.44 0.37 0.37 0.39 0.36 0.35 0.37 0.35 0.29 0.26 0.23 0.21 0.18 0.18 0.21 0.20
1.30 1.77 2.05 1.72 1.94 1.96 1.49 1.23 1.00 0.83 0.84 0.78 0.72 0.65 0.61 0.59 0.60 0.59 0.52 0.45 0.39 0.32
0.48 0.55 0.51 0.64 0.73 0.96 1.31 1.43 1.57 1.49 1.30 1.27 1.24 1.30 1.21 1.12 0.95 0.82 0.77 0.62 0.41 0.25
0.16 0.23 0.25 0.21 0.24 0.36 0.42 0.39 0.52 0.66 0.72 0.75 0.68 0.65 0.77 0.81 0.62 0.46 0.33 0.26 0.22 0.17
0.28 0.21 0.20 0.20 0.21 0.20 0.17 0.23 0.23 0.24 0.32 0.33 0.36 0.47 0.47 0.48 0.54 0.47 0.41 0.33 0.16 0.07
0.51 0.47 0.42 0.33 0.30 0.30 0.21 0.17 0.17 0.21 0.27 0.27 0.25 0.31 0.42 0.48 0.42 0.48 0.38 0.31 0.22 0.07
0.35 0.33 0.35 0.39 0.36 0.32 0.21 0.11 0.15 0.19 0.21 0.40 0.28 0.22 0.18 0.33 0.45 0.38 0.33 0.22 0.20 0.12
0.50 0.39 0.26 0.22 0.22 0.21 0.19 0.13 0.09 0.12 0.18 0.15 0.21 0.28 0.24 0.17 0.24 0.31 0.20 0.12 0.10 0.06

GFSNIL_prec_precacc12_324.txt.gz
Total_Precipitation_Accumulation
0.00 0.00 0.00 0.00 0.00 0.00 0.00 0.00 0.00 0.00 0.00 0.00 0.00 0.00 0.00 0.00 0.00 0.00 0.00 0.00 0.00 0.00
0.00 0.00 0.00 0.00 0.00 0.00 0.00 0.00 0.00 0.00 0.00 0.00 0.00 0.00 0.00 0.00 0.00 0.01 0.00 0.00 0.00 0.00
0.06 0.03 0.00 0.00 0.00 0.00 0.00 0.00 0.00 0.00 0.00 0.01 0.01 0.01 0.02 0.02 0.02 0.02 0.02 0.02 0.01 0.01
0.11 0.12 0.03 0.00 0.00 0.00 0.00 0.00 0.00 0.00 0.02 0.05 0.06 0.06 0.06 0.05 0.07 0.06 0.05 0.05 0.05 0.04
0.28 0.14 0.09 0.04 0.00 0.00 0.01 0.02 0.06 0.08 0.07 0.06 0.08 0.10 0.10 0.11 0.11 0.12 0.13 0.13 0.15 0.16
0.44 0.35 0.21 0.14 0.08 0.06 0.09 0.12 0.13 0.14 0.17 0.18 0.16 0.14 0.14 0.14 0.15 0.18 0.19 0.20 0.21 0.22
0.65 0.85 0.70 0.54 0.38 0.24 0.21 0.25 0.27 0.27 0.26 0.26 0.28 0.28 0.26 0.26 0.26 0.24 0.21 0.21 0.23 0.22
0.39 0.63 0.98 1.04 1.05 0.88 0.62 0.55 0.55 0.56 0.63 0.61 0.64 0.63 0.62 0.62 0.65 0.64 0.56 0.48 0.42 0.32
0.33 0.36 0.29 0.44 0.59 0.72 0.73 0.82 1.11 1.25 1.12 1.18 1.22 1.29 1.22 1.14 0.98 0.85 0.80 0.67 0.46 0.28
0.11 0.15 0.15 0.16 0.22 0.33 0.38 0.35 0.44 0.64 0.80 0.82 0.74 0.72 0.82 0.83 0.62 0.46 0.34 0.28 0.27 0.28
0.29 0.17 0.12 0.14 0.16 0.17 0.15 0.19 0.18 0.20 0.33 0.40 0.41 0.54 0.55 0.53 0.57 0.47 0.41 0.35 0.22 0.15
0.59 0.56 0.49 0.36 0.30 0.30 0.28 0.21 0.17 0.17 0.23 0.26 0.27 0.34 0.43 0.49 0.43 0.48 0.38 0.32 0.25 0.13
0.48 0.44 0.51 0.53 0.49 0.45 0.47 0.55 0.54 0.36 0.22 0.37 0.28 0.21 0.18 0.34 0.48 0.46 0.41 0.30 0.27 0.24
0.62 0.50 0.36 0.31 0.29 0.30 0.27 0.27 0.29 0.39 0.41 0.24 0.21 0.27 0.23 0.17 0.25 0.36 0.30 0.22 0.22 0.19

GFSNIL_prec_precacc12_330.txt.gz
Total_Precipitation_Accumulation
0.00 0.00 0.00 0.00 0.00 0.00 0.00 0.00 0.00 0.00 0.00 0.00 0.00 0.00 0.00 0.00 0.00 0.01 0.03 0.06 0.05 0.06
0.03 0.00 0.00 0.00 0.00 0.00 0.00 0.00 0.00 0.00 0.00 0.00 0.00 0.00 0.00 0.00 0.00 0.01 0.00 0.01 0.03 0.04
0.14 0.02 0.00 0.00 0.00 0.00 0.00 0.00 0.00 0.00 0.00 0.00 0.00 0.00 0.02 0.02 0.01 0.02 0.02 0.02 0.02 0.02
0.31 0.14 0.03 0.02 0.00 0.00 0.00 0.00 0.00 0.00 0.00 0.00 0.01 0.01 0.02 0.02 0.04 0.04 0.04 0.03 0.05 0.05
0.50 0.40 0.16 0.08 0.01 0.00 0.00 0.00 0.00 0.00 0.00 0.01 0.02 0.04 0.05 0.05 0.06 0.07 0.06 0.06 0.06 0.06
0.40 0.38 0.27 0.12 0.03 0.00 0.00 0.00 0.00 0.00 0.00 0.03 0.06 0.08 0.09 0.09 0.09 0.09 0.09 0.08 0.06 0.07
0.35 0.42 0.49 0.35 0.13 0.03 0.02 0.02 0.03 0.03 0.03 0.03 0.07 0.11 0.12 0.12 0.11 0.11 0.09 0.07 0.06 0.10
0.39 0.39 0.46 0.40 0.26 0.10 0.03 0.05 0.08 0.09 0.09 0.08 0.07 0.08 0.10 0.12 0.13 0.12 0.12 0.11 0.16 0.23
0.40 0.52 0.30 0.37 0.37 0.26 0.14 0.10 0.14 0.14 0.13 0.13 0.08 0.06 0.08 0.09 0.08 0.14 0.28 0.35 0.34 0.31
0.62 0.42 0.25 0.20 0.35 0.31 0.25 0.16 0.12 0.16 0.18 0.16 0.13 0.12 0.17 0.16 0.13 0.16 0.19 0.21 0.26 0.29
0.92 0.87 0.48 0.17 0.17 0.26 0.18 0.14 0.15 0.13 0.15 0.21 0.23 0.26 0.27 0.26 0.29 0.25 0.23 0.22 0.20 0.17
0.52 0.91 0.81 0.46 0.31 0.27 0.26 0.13 0.11 0.12 0.14 0.16 0.16 0.24 0.46 0.54 0.45 0.34 0.29 0.27 0.26 0.15
0.60 0.57 0.71 1.01 0.89 0.57 0.56 0.54 0.45 0.27 0.14 0.20 0.17 0.17 0.28 0.49 0.61 0.56 0.47 0.39 0.36 0.35
0.75 0.84 0.59 0.55 0.60 0.58 0.53 0.43 0.39 0.41 0.46 0.39 0.27 0.24 0.22 0.21 0.34 0.61 0.66 0.53 0.43 0.34

GFSNIL_prec_precacc12_336.txt.gz
Total_Precipitation_Accumulation
0.21 0.18 0.15 0.05 0.01 0.00 0.00 0.00 0.00 0.00 0.00 0.00 0.01 0.05 0.04 0.02 0.00 0.01 0.03 0.06 0.05 0.06
0.33 0.24 0.14 0.08 0.07 0.04 0.01 0.00 0.00 0.00 0.00 0.00 0.01 0.02 0.00 0.00 0.00 0.00 0.00 0.00 0.02 0.05
0.43 0.27 0.19 0.09 0.09 0.05 0.05 0.02 0.00 0.00 0.00 0.00 0.01 0.01 0.02 0.00 0.00 0.00 0.00 0.00 0.00 0.05
0.43 0.34 0.22 0.14 0.06 0.04 0.03 0.02 0.01 0.00 0.01 0.01 0.00 0.00 0.01 0.00 0.00 0.00 0.01 0.00 0.01 0.04
0.47 0.46 0.27 0.23 0.09 0.04 0.03 0.03 0.02 0.01 0.00 0.01 0.00 0.00 0.00 0.00 0.00 0.00 0.00 0.00 0.01 0.02
0.38 0.41 0.38 0.29 0.19 0.09 0.06 0.07 0.03 0.02 0.00 0.00 0.00 0.00 0.00 0.01 0.00 0.00 0.00 0.00 0.00 0.01
0.35 0.45 0.53 0.49 0.35 0.14 0.08 0.04 0.04 0.01 0.00 0.00 0.00 0.00 0.00 0.00 0.01 0.01 0.01 0.00 0.00 0.00
0.57 0.46 0.56 0.53 0.45 0.24 0.13 0.06 0.02 0.03 0.02 0.00 0.00 0.00 0.00 0.00 0.00 0.01 0.02 0.01 0.01 0.02
0.91 0.75 0.53 0.58 0.55 0.41 0.20 0.22 0.14 0.06 0.05 0.03 0.00 0.00 0.01 0.02 0.00 0.00 0.01 0.02 0.02 0.07
0.88 0.90 1.02 0.88 0.83 0.61 0.38 0.28 0.32 0.21 0.09 0.04 0.02 0.01 0.01 0.02 0.03 0.03 0.04 0.03 0.03 0.03
0.92 0.94 0.71 0.80 1.07 0.98 0.92 0.61 0.52 0.44 0.22 0.10 0.14 0.15 0.11 0.08 0.10 0.09 0.07 0.04 0.04 0.04
0.42 0.65 0.76 0.85 0.85 0.89 1.15 1.32 1.00 0.84 0.64 0.44 0.17 0.17 0.35 0.41 0.31 0.19 0.10 0.06 0.06 0.05
0.50 0.43 0.52 0.92 0.88 0.82 0.73 0.94 1.16 1.03 0.78 0.56 0.32 0.23 0.29 0.42 0.43 0.31 0.19 0.13 0.11 0.13
0.47 0.60 0.52 0.53 0.62 0.54 0.78 0.84 0.98 0.86 0.91 0.99 0.88 0.57 0.30 0.24 0.29 0.38 0.42 0.36 0.25 0.20